This demonstration page uses our WeatherBlox Daily Observations layout. Learn more.

Left ArrowRight Arrow

Hourly Observations for May 18, 2020

Temp ( °F °C ) Dew Point ( °F °C ) Humidity (%) Winds ( mph kmh ) Pressure ( in mb ) Visibility ( mi km ) Precip ( " mm )
12:45 am 00:45 Cloudy 52 11.1 49 9.4 89 89 N 15 24 29.93 1013 10 16 0.00 0.00
12:52 am 00:52 Cloudy 52 11.1 49 9.4 89 89 N 17 28 29.92 1013 10 16 0.00 0.00
1:10 am 01:10 Mostly Cloudy 52 11.1 49 9.4 89 89 N 16 26 29.93 1013 10 16 0.00 0.00
1:37 am 01:37 Mostly Cloudy 52 11.1 49 9.4 89 89 NNW 16 26 29.93 1013 10 16 0.00 0.00
1:52 am 01:52 Mostly Cloudy 53 11.7 49 9.4 86 86 NNW 15 24 29.92 1013 10 16 0.00 0.00
2:12 am 02:12 Cloudy 53 11.7 49 9.4 86 86 NNW 17 28 29.92 1013 10 16 0.00 0.00
2:52 am 02:52 Cloudy 53 11.7 50 10 89 89 NNW 16 26 29.91 1013 10 16 0.00 0.00
3:52 am 03:52 Cloudy 53 11.7 50 10 89 89 NNW 15 24 29.91 1013 10 16 0.00 0.00
4:52 am 04:52 Cloudy 53 11.7 50 10 89 89 NNW 13 20 29.93 1014 10 16 0.00 0.00
5:52 am 05:52 Cloudy 53 11.7 49 9.4 86 86 NNW 15 24 29.95 1014 10 16 0.00 0.00
6:36 am 06:36 Cloudy 53 11.7 49 9.4 86 86 NNW 15 24 29.96 1015 10 16 0.00 0.00
6:52 am 06:52 Cloudy 53 11.7 49 9.4 86 86 NNW 14 22 29.96 1015 10 16 0.00 0.00
7:52 am 07:52 Cloudy 53 11.7 49 9.4 86 86 N 16 26 29.97 1015 10 16 0.00 0.00
8:52 am 08:52 Cloudy 54 12.2 49 9.4 83 83 N 14 22 29.98 1015 10 16 0.00 0.00
9:52 am 09:52 Cloudy 56 13.3 48 8.9 75 75 N 16 26 29.98 1015 10 16 0.00 0.00
10:52 am 10:52 Cloudy 56 13.3 48 8.9 75 75 NNW 14 22 29.98 1015 10 16 0.00 0.00
11:52 am 11:52 Cloudy 56 13.3 47 8.3 72 72 NNW 14 22 29.98 1015 10 16 0.00 0.00
12:52 pm 12:52 Cloudy 58 14.4 48 8.9 70 70 NNW 14 22 29.99 1016 10 16 0.00 0.00
1:52 pm 13:52 Cloudy 57 13.9 47 8.3 69 69 N 16 26 29.98 1015 10 16 0.00 0.00
2:52 pm 14:52 Cloudy 59 15 48 8.9 67 67 N 15 24 29.97 1015 10 16 0.00 0.00
3:52 pm 15:52 Cloudy 59 15 48 8.9 67 67 N 13 20 29.98 1015 10 16 0.00 0.00
4:52 pm 16:52 Cloudy 59 15 48 8.9 67 67 N 15 24 29.96 1015 10 16 0.00 0.00
5:52 pm 17:52 Cloudy 59 15 49 9.4 69 69 N 16 26 29.96 1015 10 16 0.00 0.00
6:52 pm 18:52 Cloudy 58 14.4 50 10 75 75 NNE 12 19 29.96 1014 10 16 0.00 0.00
7:52 pm 19:52 Cloudy 58 14.4 50 10 75 75 N 8 13 29.96 1015 10 16 0.00 0.00
8:52 pm 20:52 Cloudy 57 13.9 51 10.6 81 81 N 6 9 29.98 1015 10 16 0.00 0.00
9:52 pm 21:52 Cloudy 57 13.9 51 10.6 81 81 N 9 15 29.99 1016 10 16 0.00 0.00
10:52 pm 22:52 Cloudy 56 13.3 51 10.6 84 84 N 7 11 29.99 1016 10 16 0.00 0.00
11:52 pm 23:52 Cloudy 56 13.3 52 11.1 87 87 N 7 11 29.99 1016 10 16 0.00 0.00

Powered by AerisWeather